[[{"header":{"parameterUnit":"m.s-1","parameterCategory":1,"la1":30.2991,"la2":30.254,"lo1":-89.0895,"lo2":-89.0444,"dy":0.0017,"dx":0.0017,"nx":28,"ny":28,"refTime":"2024-10-02T03:00:00:Z","depth":0,"parameterNumber":2,"parameterNumberName":"U-component_of_WINDS"},"data":[0,0,0,0,0,0,0,0,0,0,0,0,0,0,0,0,0,0,0,0,0,0,0,0,0,0,0,0,0,0,0,0,0,0,0,0,0,0,0,0,0,0,0,0,0,0,0,0,0,0,0,0,0,0,0,0,0,0,0.4288,0.4288,0,0.4364,0.4364,0.4365,0.4429,0.443,0.4431,0.4431,0.4508,0.451,0.4511,0,0,0,0,0,0,0,0,0,0,0,0,0,0.4195,0.4196,0.4287,0.4288,0.4289,0.4363,0.4365,0.4366,0.4429,0.443,0.4431,0.4432,0.4508,0.451,0.4511,0,0,0,0,0,0,0,0,0,0,0,0,0,0.425,0.4197,0.4287,0.433,0.4335,0.4363,0.4365,0.4366,0.4429,0.443,0.4431,0.4432,0.4507,0.4509,0.4512,0.4504,0,0,0.4518,0.4519,0,0,0,0,0,0,0,0,0.4246,0.4253,0.4323,0.4327,0.4332,0.4388,0.436,0.4412,0.4429,0.4393,0.4431,0.4433,0.4467,0.4473,0.4485,0.4507,0.451,0.4518,0.4519,0.452,0.4521,0,0,0,0,0,0,0,0.4243,0.425,0.4318,0.4324,0.433,0.4345,0.4354,0.437,0.4423,0.4396,0.4401,0.4409,0.447,0.4483,0.4487,0.4512,0.4518,0.452,0.4521,0.4522,0.4529,0.4528,0,0,0,0,0,0,0.4232,0.4246,0.4315,0.432,0.4291,0.4346,0.4356,0.4369,0.4423,0.4433,0.4408,0.4412,0.4479,0.4485,0.449,0.4482,0.452,0.4522,0.4523,0.453,0.4529,0.4527,0,0,0,0,0,0,0.423,0.4238,0.4312,0.4284,0.4295,0.4346,0.4361,0.437,0.4383,0.4433,0.4442,0.4411,0.448,0.4487,0.4499,0.4486,0.4523,0.4525,0.4531,0.4529,0.4528,0.4468,0,0,0,0,0,0,0.4227,0.4237,0.4235,0.4284,0.4296,0.432,0.436,0.4371,0.4386,0.4392,0.4438,0.4447,0.4481,0.4496,0.4501,0.449,0.4527,0.4533,0.453,0.4528,0.4471,0.4464,0.4459,0,0,0,0,0,0.4224,0.4215,0.4234,0.4242,0.4295,0.4319,0.4326,0.4366,0.4385,0.4383,0.4415,0.4445,0.4487,0.4496,0.4503,0.4492,0.4534,0.4531,0.4529,0.4474,0.4466,0.4459,0,0,0,0,0,0,0.4163,0.4222,0.4244,0.4252,0.428,0.433,0.4329,0.4357,0.438,0.4384,0.4433,0.4443,0.4449,0.4472,0.4482,0.4486,0.4514,0.4513,0.447,0.4463,0.4457,0.445,0.4529,0,0,0,0,0,0.4151,0.4166,0.4217,0.4218,0.4232,0.4277,0.429,0.4318,0.4349,0.4361,0.4394,0.4423,0.4443,0.4454,0.4475,0.4475,0.4485,0.4471,0.4465,0.4459,0.4457,0.4456,0.445,0.4519,0.4519,0.4519,0,0,0.4125,0.4159,0.4166,0.4207,0.4232,0.4246,0.4287,0.4301,0.4311,0.4364,0.4376,0.4401,0.4437,0.4442,0.4446,0.4461,0.444,0.4456,0.4451,0.4452,0.4453,0.4446,0.444,0.4518,0.4518,0.4518,0,0,0.4084,0.4113,0.4116,0.414,0.4178,0.4209,0.4209,0.4255,0.4273,0.4287,0.4326,0.4339,0.4372,0.4395,0.4411,0.4377,0.4406,0.4383,0.4349,0.4348,0.4343,0.4338,0.4324,0.4318,0.4381,0.4381,0.4381,0,0.4047,0.407,0.4114,0.4125,0.4141,0.4189,0.4191,0.4213,0.4255,0.4265,0.4282,0.4323,0.435,0.436,0.4352,0.4364,0.4365,0.4377,0.434,0.4336,0.4332,0.4319,0.4314,0.4378,0.4378,0.4379,0.4379,0,0.4022,0.4037,0.4035,0.4074,0.409,0.4097,0.414,0.4151,0.4178,0.4206,0.4218,0.4253,0.428,0.4285,0.4312,0.4298,0.4306,0.4331,0.436,0.4321,0.431,0.4305,0.4373,0.4374,0.4375,0.4376,0,0,0.3945,0.4007,0.4006,0.4023,0.4068,0.408,0.4088,0.4115,0.4122,0.415,0.4156,0.4182,0.4205,0.4223,0.4252,0.4252,0.422,0.4276,0.4278,0.4262,0.4205,0.4184,0.4178,0.424,0.4239,0.4238,0.4201,0,0.391,0.3927,0.3966,0.3971,0.3984,0.403,0.4036,0.4064,0.409,0.4105,0.4134,0.4151,0.4181,0.4191,0.4193,0.4223,0.4208,0.4227,0.4244,0.4244,0.4232,0.4172,0.4151,0.4114,0.4197,0.4196,0.4196,0,0.3872,0.3895,0.3901,0.3943,0.395,0.3955,0.3982,0.3996,0.4027,0.4047,0.4066,0.4098,0.4108,0.4135,0.4148,0.416,0.417,0.4185,0.4185,0.4186,0.4216,0.4169,0.4103,0.4096,0.4189,0.419,0.419,0,0.3811,0.3845,0.3853,0.3866,0.3916,0.3918,0.3939,0.3972,0.3985,0.4008,0.4017,0.4041,0.4054,0.4071,0.4109,0.4126,0.4116,0.4148,0.4131,0.413,0.4125,0.4125,0.4057,0.4135,0.4135,0.4136,0.4136,0,0.3767,0.3768,0.3826,0.383,0.3832,0.3877,0.3877,0.3902,0.393,0.3939,0.3981,0.3988,0.4039,0.4051,0.4081,0.4085,0.4092,0.4106,0.4114,0.4101,0.4099,0.4106,0.4109,0.4134,0.4134,0.4135,0.4135,0,0.37,0.3739,0.3749,0.3795,0.3807,0.3806,0.3845,0.385,0.3879,0.3889,0.3895,0.3939,0.3957,0.3996,0.4024,0.4044,0.404,0.4055,0.4029,0.4033,0.4013,0.4013,0.3946,0.3938,0.4023,0.4022,0.4022,0,0.3668,0.3669,0.3715,0.3724,0.3743,0.3757,0.377,0.3814,0.3826,0.3861,0.3861,0.3882,0.39,0.3925,0.396,0.3981,0.3995,0.397,0.3998,0.3985,0.3992,0.399,0.3989,0.3963,0.3962,0.3961,0.396,0,0.3605,0.3624,0.3642,0.3666,0.368,0.3701,0.3724,0.3729,0.3778,0.3789,0.3807,0.3821,0.3849,0.3867,0.3893,0.3914,0.3944,0.3951,0.3948,0.3934,0.3917,0.3923,0.4009,0.3952,0.3953,0.3953,0.3954,0.3954,0.3553,0.3556,0.3588,0.3605,0.3627,0.3648,0.3654,0.3683,0.3699,0.3724,0.375,0.3764,0.3794,0.3832,0.3851,0.3862,0.3878,0.3874,0.3872,0.387,0.3863,0.3917,0.3868,0.3868,0.3868,0.3868,0.3869,0,0.3491,0.3514,0.3529,0.356,0.3573,0.3601,0.3628,0.3637,0.3649,0.3675,0.3692,0.3711,0.3729,0.3765,0.3786,0.3788,0.3802,0.3792,0.3791,0.3794,0.3849,0.3849,0.378,0.378,0.378,0.378,0.378,0.378,0.346,0.3465,0.3487,0.3503,0.3526,0.354,0.3553,0.3571,0.3591,0.3611,0.3626,0.3649,0.3679,0.3702,0.3719,0.3729,0.3734,0.3718,0.3732,0.3783,0.3791,0.3799,0.3798,0.372,0.372,0.3676,0.3676,0.3676]},{"header":{"parameterUnit":"m.s-1","parameterCategory":1,"la1":30.2991,"la2":30.254,"lo1":-89.0895,"lo2":-89.0444,"dy":0.0017,"dx":0.0017,"nx":28,"ny":28,"refTime":"2024-10-02T03:00:00:Z","depth":0,"parameterNumber":3,"parameterNumberName":"V-component_of_WINDS"},"data":[0,0,0,0,0,0,0,0,0,0,0,0,0,0,0,0,0,0,0,0,0,0,0,0,0,0,0,0,0,0,0,0,0,0,0,0,0,0,0,0,0,0,0,0,0,0,0,0,0,0,0,0,0,0,0,0,0,0,2.2412,2.2412,0,2.2387,2.2387,2.2387,2.2376,2.2376,2.2376,2.2376,2.2347,2.2346,2.2345,0,0,0,0,0,0,0,0,0,0,0,0,0,2.2448,2.2447,2.2413,2.2412,2.2412,2.2387,2.2387,2.2387,2.2376,2.2376,2.2376,2.2376,2.2347,2.2346,2.2345,0,0,0,0,0,0,0,0,0,0,0,0,0,2.2429,2.2447,2.2413,2.2404,2.2402,2.2387,2.2387,2.2387,2.2376,2.2376,2.2376,2.2376,2.2348,2.2346,2.2345,2.2336,0,0,2.2342,2.2341,0,0,0,0,0,0,0,0,2.243,2.2427,2.2405,2.2404,2.2403,2.2385,2.2389,2.237,2.2376,2.2386,2.2376,2.2376,2.2359,2.2357,2.2352,2.2335,2.2334,2.2341,2.2341,2.234,2.234,0,0,0,0,0,0,0,2.2431,2.2428,2.2402,2.2405,2.2403,2.24,2.2397,2.2385,2.2372,2.2385,2.2384,2.2381,2.2359,2.2353,2.2351,2.2333,2.2341,2.234,2.234,2.2339,2.2307,2.2306,0,0,0,0,0,0,2.2434,2.2429,2.2403,2.2402,2.2417,2.2399,2.2396,2.239,2.2372,2.237,2.2381,2.2381,2.2355,2.2353,2.235,2.2338,2.234,2.2339,2.2338,2.2307,2.2307,2.2306,0,0,0,0,0,0,2.2435,2.2432,2.2404,2.2415,2.2412,2.2398,2.2392,2.239,2.2385,2.237,2.2367,2.2378,2.2355,2.2352,2.234,2.2337,2.2339,2.2337,2.2307,2.2307,2.2306,2.2314,0,0,0,0,0,0,2.2436,2.2432,2.243,2.2415,2.2411,2.2395,2.2392,2.2389,2.2383,2.2382,2.2366,2.2364,2.2355,2.2342,2.2339,2.2335,2.2336,2.2307,2.2307,2.2307,2.2314,2.2314,2.2315,0,0,0,0,0,2.2437,2.2433,2.243,2.2427,2.2408,2.2395,2.2393,2.2384,2.2383,2.2379,2.237,2.2364,2.2338,2.2341,2.2337,2.2333,2.2307,2.2307,2.2307,2.2314,2.2314,2.2315,0,0,0,0,0,0,2.2446,2.2431,2.2427,2.2418,2.2408,2.2393,2.2389,2.2384,2.2374,2.2373,2.2362,2.2358,2.2347,2.2339,2.2342,2.2323,2.2322,2.2321,2.2329,2.2329,2.2329,2.2331,2.2335,0,0,0,0,0,2.2447,2.2439,2.2426,2.2419,2.2414,2.2402,2.2397,2.2391,2.238,2.2375,2.2365,2.2353,2.2342,2.2335,2.2324,2.2313,2.2309,2.2309,2.2309,2.2309,2.2308,2.2301,2.23,2.2305,2.2305,2.2305,0,0,2.2449,2.2439,2.2435,2.242,2.2412,2.2403,2.2399,2.239,2.2383,2.2373,2.2361,2.2353,2.234,2.2328,2.2322,2.2321,2.2306,2.2309,2.2309,2.2308,2.23,2.23,2.2299,2.2305,2.2305,2.2305,0,0,2.2447,2.244,2.2433,2.2424,2.2412,2.2404,2.2403,2.2389,2.2383,2.2371,2.2364,2.2354,2.2336,2.2327,2.2319,2.2313,2.2308,2.231,2.2311,2.2303,2.2303,2.2303,2.23,2.2299,2.2309,2.2309,2.2309,0,2.2451,2.2438,2.2429,2.2421,2.2414,2.2406,2.2398,2.239,2.2374,2.2369,2.2369,2.2345,2.2335,2.2321,2.2319,2.2314,2.231,2.2312,2.2304,2.2303,2.2303,2.23,2.2299,2.231,2.231,2.231,2.231,0,2.2442,2.2434,2.2429,2.2415,2.2408,2.24,2.2389,2.2382,2.2376,2.2368,2.2355,2.2344,2.233,2.2326,2.232,2.231,2.2309,2.2307,2.2305,2.2303,2.23,2.2299,2.231,2.231,2.231,2.231,0,0,2.2446,2.2427,2.2426,2.2419,2.2404,2.2397,2.2388,2.2375,2.2369,2.2358,2.235,2.2334,2.2331,2.2323,2.2316,2.2309,2.2304,2.2307,2.2306,2.2306,2.2291,2.2293,2.2292,2.2301,2.23,2.23,2.2292,0,2.2442,2.2426,2.2418,2.2405,2.2397,2.2388,2.238,2.237,2.2361,2.2352,2.2342,2.2331,2.2329,2.2324,2.2317,2.2306,2.2301,2.2307,2.2291,2.2291,2.2295,2.2291,2.2293,2.2287,2.2291,2.2291,2.2291,0,2.2436,2.2426,2.2413,2.2399,2.2394,2.2387,2.2375,2.2366,2.2354,2.2348,2.2339,2.2331,2.232,2.2319,2.2303,2.2307,2.23,2.2293,2.2293,2.2291,2.229,2.2288,2.2284,2.2283,2.2289,2.2289,2.2289,0,2.2439,2.2422,2.2412,2.2406,2.239,2.2385,2.2378,2.2365,2.2358,2.2346,2.2341,2.2328,2.2321,2.231,2.2299,2.23,2.2283,2.2282,2.2277,2.2278,2.2274,2.2275,2.2269,2.227,2.227,2.2271,2.2271,0,2.2435,2.2427,2.2413,2.2407,2.2397,2.2387,2.2377,2.2369,2.2358,2.2349,2.2341,2.2332,2.2318,2.2308,2.2299,2.2286,2.2283,2.2277,2.2274,2.2277,2.2278,2.2272,2.2272,2.227,2.227,2.227,2.227,0,2.2437,2.2428,2.2416,2.2401,2.2397,2.2391,2.2378,2.237,2.2362,2.235,2.2347,2.2333,2.232,2.2308,2.229,2.2284,2.2271,2.2268,2.2275,2.2274,2.227,2.227,2.226,2.2258,2.2261,2.2261,2.2261,0,2.2436,2.2429,2.2414,2.2408,2.2401,2.2391,2.2384,2.2373,2.2365,2.235,2.2344,2.2331,2.232,2.2299,2.2286,2.2272,2.2269,2.2266,2.2267,2.2269,2.2268,2.2268,2.2267,2.2266,2.2266,2.2266,2.2266,0,2.2433,2.2429,2.2419,2.2407,2.2399,2.2389,2.2378,2.2373,2.236,2.2352,2.2339,2.233,2.2312,2.2298,2.2283,2.2274,2.2267,2.2266,2.2264,2.2267,2.2271,2.2268,2.2275,2.2266,2.2266,2.2266,2.2266,2.2266,2.2433,2.2427,2.2415,2.2404,2.2395,2.2386,2.2378,2.2368,2.2358,2.2343,2.2337,2.2323,2.231,2.2288,2.2279,2.2268,2.2266,2.2264,2.2263,2.2262,2.2263,2.2273,2.2265,2.2265,2.2265,2.2265,2.2265,0,2.243,2.2422,2.2412,2.2398,2.2389,2.2384,2.2372,2.2365,2.2353,2.2342,2.2331,2.2315,2.2301,2.2288,2.2273,2.2266,2.2263,2.2263,2.2263,2.226,2.2265,2.2268,2.2266,2.2266,2.2266,2.2266,2.2266,2.2266,2.2427,2.2416,2.241,2.2394,2.2386,2.2373,2.2367,2.2357,2.2348,2.2331,2.232,2.2311,2.2298,2.2282,2.2269,2.2265,2.226,2.2261,2.2256,2.226,2.226,2.226,2.2263,2.226,2.226,2.2252,2.2252,2.2252]}]]